Beaufort, NC

8:18 PM EST on November 24, 2017 (GMT -0500)
Smith

Weather History for KMRH - September, 2012

Change the Weather History Date:

Friday, September 14, 2012

  Actual Average Record
Temperature  
Mean Temperature 76 °F -  
Max Temperature 81 °F 83 °F 94 °F (1952)
Min Temperature 71 °F 67 °F 53 °F (1985)
Cooling Degree Days 11    
Growing Degree Days 26 (Base 50)    
Moisture  
Dew Point 70 °F    
Average Humidity 86    
Maximum Humidity 96    
Minimum Humidity 65    
Precipitation  
Precipitation 0.14 in - - ()
Sea Level Pressure  
Sea Level Pressure 30.17 in    
Wind  
Wind Speed 5 mph (NE)    
Max Wind Speed 10 mph    
Max Gust Speed 17 mph    
Visibility 9 miles    
Events Rain    
Averages and records for this station are not official NWS values.
T = Trace of Precipitation, MM = Missing Value Source: NWS Daily Summary

Daily Weather History Graph

Daily Weather History Graph

Search for Another Location

Airport or City:

Trip Planner

Search our weather history database for the weather conditions in past years. The results will help you decide how hot, cold, wet, or windy it might be!

Date:

Astronomy

Sep. 14, 2012 Rise Set
Actual Time 6:49 AM EDT 7:14 PM EDT
Civil Twilight 6:23 AM EDT 7:39 PM EDT
Nautical Twilight 5:54 AM EDT 8:09 PM EDT
Astronomical Twilight 5:23 AM EDT 8:39 PM EDT
Moon 5:13 AM EDT (9/14) 6:09 PM EDT (9/14)
Length of Visible Light 13h 15m
Length of Day
12h 24m
Waning Crescent, 3% of the Moon is Illuminated
Sep 14
Waning Crescent
Sep 15
New
Sep 22
First Quarter
Sep 29
Full
Oct 8
Last Quarter

Hourly Weather History & Observations

Time (EDT) Temp. Heat Index Dew Point Humidity Pressure Visibility Wind Dir Wind Speed Gust Speed Precip Events Conditions
12:56 AM 71.1 °F - 68.0 °F 90% 30.22 in 10.0 mi NNE 3.5 mph - N/A   Clear
1:56 AM 71.1 °F - 69.1 °F 93% 30.21 in 10.0 mi NNE 5.8 mph - N/A   Clear
2:56 AM 72.0 °F - 69.1 °F 91% 30.19 in 10.0 mi NE 4.6 mph - N/A   Partly Cloudy
3:56 AM 71.1 °F - 70.0 °F 96% 30.18 in 10.0 mi NNE 3.5 mph - N/A   Clear
4:56 AM 71.1 °F - 70.0 °F 96% 30.18 in 10.0 mi NNE 4.6 mph - N/A   Scattered Clouds
5:56 AM 71.1 °F - 69.1 °F 93% 30.18 in 10.0 mi North 5.8 mph - N/A   Overcast
6:56 AM 71.1 °F - 70.0 °F 96% 30.19 in 10.0 mi NNE 3.5 mph - N/A   Mostly Cloudy
7:43 AM 71.6 °F - 69.8 °F 94% 30.20 in 1.8 mi NNE 6.9 mph - 0.05 in Rain Heavy Rain
7:54 AM 71.6 °F - 69.8 °F 94% 30.20 in 3.0 mi NNE 6.9 mph - 0.07 in Rain Light Rain
7:56 AM 71.1 °F - 70.0 °F 96% 30.20 in 5.0 mi NNE 5.8 mph - 0.07 in Rain Light Rain
8:56 AM 75.0 °F - 71.1 °F 87% 30.19 in 10.0 mi North 6.9 mph - 0.00 in   Scattered Clouds
9:56 AM 78.1 °F - 71.1 °F 79% 30.20 in 10.0 mi NE 6.9 mph 17.3 mph N/A   Partly Cloudy
10:33 AM 73.4 °F - 69.8 °F 88% 30.20 in 1.8 mi NE 8.1 mph 17.3 mph 0.06 in Rain Heavy Rain
10:42 AM 75.2 °F - 71.6 °F 89% 30.20 in 3.0 mi NE 5.8 mph - 0.07 in Rain Light Rain
10:56 AM 78.1 °F - 71.1 °F 79% 30.19 in 10.0 mi NE 6.9 mph - 0.07 in   Mostly Cloudy
11:56 AM 79.0 °F - 70.0 °F 74% 30.19 in 10.0 mi NE 10.4 mph - N/A   Partly Cloudy
12:56 PM 80.1 °F 82.9 °F 69.1 °F 69% 30.18 in 10.0 mi East 5.8 mph - N/A   Partly Cloudy
1:56 PM 81.0 °F 83.8 °F 68.0 °F 65% 30.16 in 10.0 mi ENE 8.1 mph - N/A   Partly Cloudy
2:56 PM 80.1 °F 82.9 °F 69.1 °F 69% 30.14 in 10.0 mi East 10.4 mph - N/A   Clear
3:56 PM 79.0 °F - 70.0 °F 74% 30.14 in 10.0 mi ENE 8.1 mph 16.1 mph N/A   Clear
4:56 PM 78.1 °F - 69.1 °F 74% 30.14 in 10.0 mi East 10.4 mph 16.1 mph N/A   Partly Cloudy
5:56 PM 77.0 °F - 69.1 °F 76% 30.14 in 10.0 mi NE 6.9 mph - N/A   Clear
6:56 PM 75.0 °F - 69.1 °F 82% 30.14 in 10.0 mi Variable 5.8 mph - N/A   Partly Cloudy
7:56 PM 73.0 °F - 70.0 °F 90% 30.14 in 10.0 mi ENE 5.8 mph - N/A   Partly Cloudy
8:56 PM 73.0 °F - 70.0 °F 90% 30.14 in 10.0 mi ENE 3.5 mph - N/A   Clear
9:56 PM 72.0 °F - 70.0 °F 93% 30.15 in 10.0 mi Calm Calm - N/A   Partly Cloudy
10:56 PM 71.1 °F - 69.1 °F 93% 30.15 in 10.0 mi Calm Calm - N/A   Clear
11:56 PM 71.1 °F - 69.1 °F 93% 30.13 in 10.0 mi NE 3.5 mph - N/A   Clear